SCP
0 0 0 0 0 0 0 0 0 0 0 0 0 0 0 0 0 0 0 0 0 0 0 0 0 0 0 0 0 0 0 0 0 0 0 0 0 0 0 0 0 0 0 0
0 0 0 0 0 0 0 0 0 0 0 0 0 0 0 0 0 0 0 0 0 0 0 0 0 0 0 0 0 0 0 0 0 0 0 0 0 0 0 0 0 0 0 0
0 0 0 0 0 0 0 0 0 0 0 0 0 0 0 0 0 0 0 0 0 0 0 0 0 0 0 0 0 0 0 0 0 0 0 0 0 0 0 0 0 0 0 0
0 0 0 0 0 0 0 0 0 0 0 0 0 0 0 0 0 0 0 0 0 0 0 0 0 0 0 0 0 0 0 0 0 0 0 0 0 0 0 0 0 0 0 0
0 0 0 0 0 0 0 0 0 0 0 0 0 0 0 0 0 0 0 0 0 0 0 0 0 0 0 0 0 0 0 0 0 0 0 0 0 0 0 0 0 0 0 0
0 0 0 0 0 0 0 0 0 0 0 0 0 0 0 0 0 0 0 0 0 0 0 0 0 0 0 0 0 0 0 0 0 0 0 0 0 0 0 0 0 0 0 0
0 0 0 0 0 0 0 0 0 0 0 0 0 0 0 0 0 0 0 0 0 0 0 0 0 0 0 0 0 0 0 0 0 0 0 0 0 0 0 0 0 0 0 0
0 0 0 0 0 0 0 0 0 0 0 0 0 0 0 0 0 0 0 0 0 0 0 0 0 0 0 0 0 0 0 0 0 0 0 0 0 0 0 0 0 0 0 0
0 0 0 0 0 0 0 0 0 0 0 0 0 0 0 0 0 0 0 0 0 0 0 0 0 0 0 0 0 0 0 0 0 0 0 0 0 0 0 0 0 0 0 0
0 0 0 0 0 0 0 0 0 0 0 0 0 0 0 0 0 0 0 0 0 0 0 0 0 0 0 0 0 0 0 0 0 0 0 0 0 0 0 0 0 0 0 0
0 0 0 0 0 0 0 0 0 0 0 0 0 0 0 0 0 0 0 -0 0 0 0 0 0 0 0 0 0 0 0 0 0 0 0 0 0 0 0 0 0 0 0 0
0 0 0 0 0 0 0 0 0 0 0 0 0 0 0 0 0 0 0 -0 0 0 0 0 0 0 0 0 0 0 0 0 0 0 0 0 0 0 0 0 0 0 0 0
0 0 0 0 0 0 0 0 0 0 0 0 -0 -0 -0 -0 0 0 0 0 0 0 0 0 0 0 0 0 0 0 0 0 0 0 0 0 0 0 0 0 0 0 0 0
0 0 0 0 0 0 0 0 0 0 0 0 -0 -0 -0 0 0 0 0 0 0 0 0 0 0 0 0 0 0 0 0 0 0 0 0 0 0 0 0 0 0 0 0 0
0 0 0 0 0 0 0 0 0 0 0 0 0 0 0 0 0 0 0 0 0 0 0 0 0 0 0 0 0 0 0 0 0 0 0 0 0 0 0 0 0 0 0 0
0 0 0 0 0 0 0 0 0 0 0 0 0 0 0 0 0 0 0 0 0 0 0 0 0 0 0 0 0 0 0 0 0 0 0 0 0 0 0 0 0 0 0 0
0 0 0 0 0 0 0 0 0 0 0 0 0 0 0 0 -0 -0 0 0 0 0 0 0 0 0 0 0 0 0 0 0 0 0 0 0 0 0 0 0 0 0 0 0
0 0 0 0 0 0 0 0 0 0 0 0 0 0 0 0 0 0 0 0 0 0 0 0 0 0 0 0 0 0 0 0 0 0 0 0 0 0 0 0 0 0 0 0
0 0 0 0 0 0 0 0 0 0 0 0 0 0 0 0 0 0 0 0 0 0 0 0 0 0 0 0 0 0 0 0 0 0 0 0 0 0 0 0 0 0 0 0
0 0 0 0 0 0 0 0 0 0 0 0 0 0 0 0 0 0 0 0 0 0 0 0 0 0 0 0 0 0 0 0 0 0 0 0 0 0 0 0 0 0 0 0
0 0 0 0 0 0 0 0 0 0 0 0 0 0 0 0 0 0 0 0 0 0 0 0 0 0 0 0 0 0 0 0 0 0 0 0 0 0 0 0 0 0 0 0
0 0 0 0 0 0 0 0 0 0 0 0 0 0 0 0 0 0 0 0 0 0 0 0 0 0 0 0 0 0 0 0 0 0 0 0 0 0 0 0 0 0 0 0
0 0 0 0 0 0 0 0 0 0 0 0 0 0 0 0 0 0 0 0 0 0 0 0 0 0 0 0 0 0 0 0 0 0 0 0 0 0 0 0 0 0 0 0
0 0 0 0 0 0 0 0 0 0 0 0 0 0 0 0 0 0 0 0 0 0 0 0 0 0 0 0 0 0 0 0 0 0 0 0 0 0 0 0 0 0 0 0
0 0 0 0 0 0 0 0 0 0 0 0 0 0 0 0 0 0 0 0 0 0 0 0 0 0 0 0 0 0 0 0 0 0 0 0 0 0 0 0 0 0 0 0
-0 -0 0 0 0 0 0 0 0 0 0 0 0 0 0 0 0 0 0 0 0 0 0 0 0 0 0 0 0 0 0 0 0 0 0 0 0 0 0 0 0 0 0 0
Wind_Speed
4 4 10 12 10 5 6 6 5 6 4 6 8 10 9 6 5 6 7 7 8 9 7 7 8 8 9 8 9 9 9 7 6 5 4 3 2 1 1 1 1 2 2 2
3 9 10 6 6 4 4 4 4 3 2 4 5 8 7 6 7 9 10 10 9 7 5 6 7 8 9 10 9 9 9 8 7 5 4 3 3 1 1 1 1 1 1 1
9 6 7 8 7 8 7 7 6 4 1 1 1 5 6 5 5 5 7 8 8 11 11 9 9 8 9 10 10 10 9 8 7 6 4 4 3 2 1 1 0 0 1 1
6 4 7 9 10 9 8 7 6 5 4 3 3 4 7 5 4 6 7 7 8 9 9 10 10 10 10 10 9 9 9 8 7 7 6 7 4 3 2 1 0 1 0 0
7 6 9 11 10 9 6 4 5 5 4 1 2 3 8 3 5 8 8 8 7 8 10 11 11 11 10 9 8 8 8 7 6 6 7 6 4 2 1 1 1 0 1 0
5 3 6 6 5 7 5 5 5 4 3 4 7 6 8 6 8 6 6 6 7 7 7 8 8 8 7 7 7 7 8 6 6 6 6 6 5 4 3 1 1 0 1 1
3 3 3 3 5 4 6 7 3 1 1 8 4 6 9 6 6 8 8 7 6 7 7 7 8 8 8 8 8 8 8 7 6 6 5 5 5 5 5 3 2 1 1 1
6 6 6 4 7 8 7 9 9 8 7 4 2 7 7 4 3 3 5 5 6 5 6 7 8 9 9 9 9 8 8 7 6 6 5 4 4 3 3 3 2 2 2 2
6 5 2 3 3 9 7 6 6 6 2 2 5 5 5 1 0 1 3 4 5 6 6 6 7 8 9 9 9 9 9 7 6 5 4 4 3 3 3 2 2 2 2 2
4 3 2 2 3 1 6 7 5 5 6 4 4 4 5 4 4 3 3 4 4 4 5 5 6 6 7 7 7 7 7 7 6 5 4 3 3 3 2 2 2 2 2 2
2 4 1 2 5 7 4 4 5 5 4 6 4 6 4 5 5 5 4 4 5 5 5 5 5 5 6 6 6 6 6 5 5 4 3 3 2 2 2 2 2 2 2 2
2 3 2 2 2 2 3 6 6 6 5 4 4 5 3 1 1 4 4 3 4 4 4 5 5 6 6 6 5 5 5 5 4 4 3 3 2 1 1 2 2 2 2 2
3 4 4 1 2 1 2 3 4 4 4 4 5 5 3 4 4 3 4 3 4 4 5 5 5 5 5 5 4 4 4 4 3 3 3 2 1 1 1 2 2 2 2 2
3 3 5 8 7 6 5 5 5 5 4 4 6 4 1 2 2 2 3 4 4 4 5 5 4 4 4 4 4 4 3 3 3 3 3 2 2 2 2 2 2 2 2 3
3 2 2 2 2 4 4 6 7 6 7 7 5 5 4 3 3 3 3 4 5 5 4 4 4 3 3 3 3 2 2 2 2 2 2 2 1 1 1 1 1 2 2 3
2 2 1 1 1 2 1 2 5 5 4 4 3 3 2 1 3 3 3 4 4 3 3 3 3 4 3 3 2 2 1 1 2 2 1 1 1 1 1 1 1 2 2 3
1 2 2 1 1 3 2 4 5 4 3 6 7 6 3 3 4 4 4 3 3 3 3 3 2 2 3 2 2 2 1 1 2 1 1 0 1 1 1 1 1 2 2 3
3 2 2 1 2 5 4 2 3 4 2 2 3 3 4 4 3 2 2 3 2 2 2 2 2 2 1 2 2 2 2 2 2 1 1 0 0 1 1 1 2 2 3 3
3 4 2 2 2 2 4 2 0 3 2 1 3 3 3 4 5 3 3 3 2 2 2 2 2 2 2 2 2 3 2 2 2 1 1 1 1 1 1 2 2 3 2 3
3 3 3 2 3 4 4 4 3 3 1 2 3 4 4 4 3 2 1 3 3 4 3 3 3 3 3 2 2 3 2 2 1 1 1 1 1 1 2 2 3 3 3 3
2 2 2 2 2 4 4 5 1 4 4 2 1 2 3 3 3 3 3 3 4 4 4 4 4 3 2 1 2 3 2 1 1 1 1 2 2 1 2 2 2 3 3 3
3 2 2 3 2 5 4 2 2 2 0 2 2 3 4 5 5 5 5 4 4 4 4 4 4 3 3 2 2 2 1 2 2 1 2 2 2 2 2 2 3 3 3 3
1 2 3 3 3 2 2 1 1 1 2 2 2 3 5 5 5 4 4 4 4 4 4 3 3 3 3 3 2 2 2 2 2 2 2 2 3 2 2 2 3 3 3 3
2 1 2 1 1 2 3 3 4 4 3 3 4 4 4 5 5 4 4 3 3 4 3 3 3 4 4 4 3 2 2 2 2 1 2 2 2 3 3 3 2 2 3 3
2 1 2 1 0 2 3 3 3 5 5 6 5 5 4 6 5 4 3 3 2 3 3 3 3 3 3 3 4 3 3 2 2 1 2 2 2 2 3 3 3 3 3 4
2 0 2 3 3 2 1 2 3 5 5 5 5 5 4 4 4 4 3 2 2 2 2 3 3 3 3 3 3 4 4 2 2 2 2 2 2 2 2 3 4 6 6 9
Wind_Direction
172 162 198 200 194 185 169 175 199 221 219 179 209 231 241 234 210 204 203 199 197 203 200 179 170 161 154 154 155 157 154 154 147 142 141 138 143 139 119 122 120 113 100 90
150 220 210 184 188 203 197 194 215 258 238 190 217 246 253 237 219 207 201 202 200 194 177 174 166 161 161 161 161 161 160 159 159 158 152 143 139 140 147 119 87 94 88 82
192 216 178 178 192 200 219 205 198 201 353 11 133 286 256 252 226 218 211 201 194 186 182 177 169 169 164 165 168 166 165 161 157 146 124 105 78 64 56 51 33 34 78 79
222 222 177 184 200 185 221 215 192 181 153 239 167 253 267 235 236 223 220 206 197 191 182 177 172 171 174 175 170 162 161 158 154 148 146 148 149 159 190 188 198 325 53 79
214 196 184 196 200 177 196 176 177 183 167 197 199 204 271 230 228 229 220 209 199 189 180 180 179 177 175 170 164 159 153 152 152 153 154 152 149 157 143 123 122 337 328 321
218 205 194 194 182 172 145 93 62 55 94 229 210 188 258 224 211 213 216 206 195 185 178 177 174 164 158 155 152 152 151 152 153 152 153 155 155 149 138 146 170 257 307 305
207 220 214 160 143 161 144 125 95 50 221 240 204 196 244 240 215 201 198 198 191 181 170 163 161 160 156 154 155 155 153 153 153 152 156 162 163 160 166 176 185 201 259 287
172 207 204 188 172 173 180 155 162 180 202 246 195 220 251 252 231 200 185 175 163 163 166 165 167 164 161 159 156 155 157 154 154 156 162 160 160 163 173 184 188 204 224 243
173 210 203 200 170 147 158 185 166 135 146 185 238 259 292 275 219 155 148 143 159 164 164 162 160 159 158 158 159 160 156 151 156 159 154 154 159 165 176 186 189 211 232 251
153 174 212 193 108 122 163 153 126 139 159 210 243 237 229 219 212 193 168 160 154 149 148 149 150 150 151 152 150 148 149 153 155 151 157 160 171 177 175 174 198 223 237 248
125 146 170 146 179 178 149 156 151 151 168 165 203 251 225 207 200 186 184 165 151 143 145 146 140 135 130 127 133 137 142 138 141 147 147 142 160 165 165 189 214 225 238 247
144 131 162 221 297 224 172 167 151 164 209 184 174 257 318 160 146 150 156 149 137 133 126 124 125 120 119 124 132 134 137 141 151 150 144 146 149 148 176 218 233 232 240 248
145 134 125 91 325 324 179 176 160 141 133 162 172 248 2 56 71 93 116 116 116 113 107 103 110 120 126 129 130 132 136 143 146 142 141 141 154 173 210 238 248 247 250 260
114 151 180 194 203 180 193 202 179 151 171 191 208 207 326 61 92 88 104 104 108 109 114 111 109 112 119 125 130 128 122 132 139 142 149 166 193 206 221 237 253 256 255 260
95 149 197 252 224 174 187 195 189 188 182 180 201 193 220 206 170 152 131 111 98 92 96 105 109 109 107 103 103 109 118 124 135 142 160 197 217 221 223 239 260 278 280 280
62 128 103 335 170 143 143 208 195 192 178 181 163 244 258 132 108 103 119 124 120 117 111 102 104 112 116 118 115 104 111 130 133 146 173 195 207 232 240 251 268 291 294 295
48 115 122 222 241 92 256 236 200 180 181 175 202 218 160 119 130 153 158 137 138 131 116 116 121 132 138 144 138 130 132 107 112 129 140 187 210 249 265 275 288 282 282 295
150 109 116 131 105 194 241 287 172 157 169 169 165 167 163 160 135 96 109 129 128 117 107 102 99 97 105 109 106 107 91 91 91 85 66 337 285 285 294 284 274 277 285 285
168 135 114 129 167 264 304 328 157 171 249 276 172 169 139 115 83 41 34 77 115 112 103 102 102 96 79 75 87 92 75 69 67 48 9 339 316 301 297 287 281 288 290 292
99 111 119 127 154 215 256 302 306 116 261 306 175 180 166 131 140 229 5 58 67 77 79 76 74 73 62 41 81 91 76 65 43 342 325 328 322 309 290 284 291 298 293 290
82 90 133 148 188 258 285 310 33 150 224 305 162 161 150 150 166 151 104 74 75 76 75 73 73 67 49 33 80 87 70 22 312 329 347 346 341 318 297 301 307 303 304 304
143 136 157 142 175 251 320 38 131 205 356 59 76 94 102 101 99 96 90 81 76 71 68 67 66 48 28 35 75 73 29 331 343 3 358 351 340 330 338 327 317 313 308 304
141 174 169 174 195 286 349 86 31 59 72 51 75 90 109 106 102 92 83 80 73 71 63 59 68 45 22 20 54 61 345 340 355 7 356 341 334 332 326 314 310 314 311 303
330 22 119 113 359 353 26 35 35 48 61 60 85 97 102 108 107 97 89 79 70 62 58 56 57 45 18 10 21 25 347 353 16 9 340 331 330 325 321 315 306 303 302 300
292 21 103 109 289 23 15 23 45 55 61 63 64 72 94 107 103 100 95 86 78 65 48 48 50 38 8 5 7 358 354 11 12 345 326 322 318 308 308 309 297 296 279 286
332 184 169 204 214 178 254 360 59 70 61 62 72 66 63 92 103 94 86 74 69 58 49 44 35 23 359 357 358 352 351 359 353 333 324 316 313 308 306 306 312 312 308 311